Weather History for Wooster, OH

Change the Weather History Date:

Friday, January 25, 2013

  Actual Average Record
Temperature  
Mean Temperature 15 °F -  
Max Temperature 18 °F 30 °F 43 °F (1997)
Min Temperature 12 °F 15 °F -11 °F (2004)
Degree Days  
Heating Degree Days 50    
Moisture  
Dew Point 10 °F    
Average Humidity 79    
Maximum Humidity 93    
Minimum Humidity 64    
Precipitation  
Precipitation 0.03 in - - ()
Sea Level Pressure  
Sea Level Pressure 30.15 in    
Wind  
Wind Speed 6 mph (SSE)    
Max Wind Speed 13 mph    
Max Gust Speed -    
Visibility 5 miles    
Events Fog , Snow    
Averages and records for this station are not official NWS values.
T = Trace of Precipitation, MM = Missing Value Source: NWS Daily Summary

Daily Weather History Graph

Daily Weather History Graph

Search for Another Location

Airport:

Trip Planner

Search our weather history database for the weather conditions in past years. The results will help you decide how hot, cold, wet, or windy it might be!

Date:

Astronomy

Jan. 25, 2013 Rise Set
Actual Time 7:43 AM EST 5:36 PM EST
Civil Twilight 7:14 AM EST 6:06 PM EST
Nautical Twilight 6:41 AM EST 6:39 PM EST
Astronomical Twilight 6:08 AM EST 7:11 PM EST
Moon 4:32 PM EST (1/25) 6:22 AM EST (1/25)
Length of Visible Light 10h 51m
Length of Day
9h 52m
Waxing Gibbous, 98% of the Moon is Illuminated
Jan 25
Waxing Gibbous
Jan 26
Full
Feb 3
Last Quarter
Feb 10
New
Feb 17
First Quarter

Hourly Weather History & Observations

Time (EST) Temp. Windchill Dew Point Humidity Pressure Visibility Wind Dir Wind Speed Gust Speed Precip Events Conditions
12:56 AM 12.0 °F 5.9 °F 6.1 °F 77% 30.51 in 10.0 mi ESE 3.5 mph - N/A   Clear
1:56 AM 12.9 °F 5.2 °F 6.1 °F 74% 30.49 in 10.0 mi SE 4.6 mph - N/A   Clear
2:56 AM 12.9 °F 2.6 °F 5.0 °F 71% 30.47 in 10.0 mi SE 6.9 mph - N/A   Mostly Cloudy
3:56 AM 14.0 °F 5.1 °F 5.0 °F 67% 30.45 in 10.0 mi SE 5.8 mph - N/A   Overcast
4:56 AM 14.0 °F 1.2 °F 5.0 °F 67% 30.42 in 10.0 mi SSE 10.4 mph - N/A   Overcast
5:56 AM 14.0 °F 0.5 °F 5.0 °F 67% 30.36 in 10.0 mi SE 11.5 mph - N/A   Overcast
7:56 AM 14.0 °F 1.2 °F 5.0 °F 67% 30.30 in 10.0 mi SE 10.4 mph - N/A   Overcast
8:56 AM 14.0 °F 3.9 °F 5.0 °F 67% 30.30 in 10.0 mi SSE 6.9 mph - N/A   Overcast
9:56 AM 15.1 °F 1.8 °F 5.0 °F 64% 30.25 in 10.0 mi ESE 11.5 mph - N/A   Overcast
10:07 AM 14.0 °F 2.0 °F 6.8 °F 73% 30.17 in 1.8 mi SE 9.2 mph - 0.00 in Snow Light Snow
10:15 AM 14.0 °F -0.2 °F 8.6 °F 79% 30.17 in 0.8 mi SE 12.7 mph - 0.00 in Snow Light Snow
10:56 AM 14.0 °F 2.0 °F 10.0 °F 84% 30.22 in 0.8 mi ESE 9.2 mph - 0.00 in Snow Light Snow
11:18 AM 14.0 °F 2.0 °F 10.4 °F 86% 30.16 in 0.5 mi SE 9.2 mph - 0.00 in Fog , Snow Light Snow
11:56 AM 14.0 °F 3.9 °F 10.9 °F 88% 30.19 in 0.5 mi SSE 6.9 mph - 0.02 in Fog , Snow Light Snow
12:12 PM 14.0 °F 2.9 °F 10.4 °F 86% 30.11 in 1.0 mi SE 8.1 mph - 0.00 in Snow Light Snow
12:56 PM 15.1 °F 5.2 °F 10.9 °F 84% 30.14 in 1.0 mi SE 6.9 mph - 0.00 in Snow Light Snow
1:08 PM 15.8 °F 7.2 °F 10.4 °F 79% 30.06 in 1.5 mi East 5.8 mph - 0.00 in Snow Light Snow
1:18 PM 15.8 °F 6.1 °F 10.4 °F 79% 30.06 in 2.0 mi ESE 6.9 mph - 0.00 in Snow Light Snow
1:48 PM 15.8 °F 6.1 °F 10.4 °F 79% 30.05 in 1.8 mi SE 6.9 mph - 0.00 in Snow Light Snow
1:56 PM 16.0 °F 7.4 °F 10.9 °F 81% 30.11 in 2.0 mi SE 5.8 mph - 0.00 in Snow Light Snow
2:30 PM 15.8 °F 7.2 °F 10.4 °F 79% 30.03 in 2.0 mi SSE 5.8 mph - 0.01 in Snow Light Snow
2:43 PM 15.8 °F 6.1 °F 10.4 °F 79% 30.02 in 5.0 mi SE 6.9 mph - 0.01 in   Haze
2:56 PM 17.1 °F 6.6 °F 10.9 °F 77% 30.07 in 8.0 mi SE 8.1 mph - 0.01 in   Overcast
3:56 PM 17.1 °F 10.0 °F 10.9 °F 77% 30.06 in 6.0 mi SSE 4.6 mph - N/A   Haze
4:31 PM 17.6 °F 10.7 °F 10.4 °F 73% 30.00 in 6.0 mi SE 4.6 mph - N/A   Haze
4:53 PM 17.6 °F - 12.2 °F 79% 30.00 in 7.0 mi Calm Calm - N/A   Overcast
4:56 PM 17.1 °F 11.7 °F 12.0 °F 81% 30.06 in 8.0 mi SSE 3.5 mph - N/A   Overcast
5:56 PM 17.1 °F - 12.0 °F 81% 30.08 in 8.0 mi Calm Calm - N/A   Overcast
6:56 PM 17.1 °F - 12.0 °F 81% 30.07 in 8.0 mi Calm Calm - N/A   Overcast
7:56 PM 17.1 °F 11.7 °F 12.0 °F 81% 30.07 in 10.0 mi South 3.5 mph - N/A   Overcast
8:20 PM 17.6 °F 12.3 °F 12.2 °F 79% 30.01 in 8.0 mi South 3.5 mph - N/A   Overcast
8:29 PM 17.6 °F 10.7 °F 12.2 °F 79% 30.01 in 8.0 mi South 4.6 mph - N/A   Overcast
8:56 PM 18.0 °F 12.7 °F 12.9 °F 81% 30.08 in 8.0 mi SW 3.5 mph - N/A   Overcast
9:56 PM 18.0 °F 8.7 °F 14.0 °F 84% 30.11 in 3.0 mi SW 6.9 mph - 0.00 in Snow Light Snow
10:05 PM 17.6 °F 9.3 °F 14.0 °F 86% 30.05 in 1.8 mi WSW 5.8 mph - 0.00 in Snow Light Snow
10:18 PM 17.6 °F 9.3 °F 15.8 °F 93% 30.05 in 1.0 mi WSW 5.8 mph - 0.00 in Snow Light Snow
10:30 PM 17.6 °F 9.3 °F 15.8 °F 93% 30.05 in 1.2 mi SW 5.8 mph - 0.00 in Snow Light Snow
10:56 PM 18.0 °F 9.8 °F 15.1 °F 88% 30.11 in 2.0 mi SW 5.8 mph - 0.00 in Snow Light Snow
11:03 PM 17.6 °F 9.3 °F 15.8 °F 93% 30.04 in 2.5 mi SW 5.8 mph - 0.00 in Snow Light Snow
11:56 PM 18.0 °F 9.8 °F 16.0 °F 92% 30.11 in 2.5 mi SW 5.8 mph - 0.00 in Snow Light Snow